Regional Weather Roundup
Issued by NWS

Home | Current Version | Previous Version | Text Only | Print | Product List | Glossary On
Versions: 1 2 3 4 5 6 7 8 9 10 11 12 13 14 15 16 17 18 19 20 21 22 23 24 25 26 27 28 29 30 31 32 33 34 35 36 37 38 39 40 41 42 43 44 45 46 47 48 49 50
000
ASCA44 KEWX 250020
RWRMX

LATIN AMERICA AND CARIBBEAN REGIONAL WEATHER ROUNDUP
NATIONAL WEATHER SERVICE AUSTIN/SAN ANTONIO TX
700 PM CDT WED AUG 24 2016

NOTE: "FAIR" INDICATED FEW OR NO CLOUDS BELOW 12,000 FEET WITH NO
SIGNIFICANT WEATHER AND/OR OBSTRUCTIONS TO VISIBILITY.

BAJA CALIFORNIA

CITY           SKY/WX    TMP DP  RH WIND       PRES   REMARKS
LORETO         MOSUNNY   93  75  55 SE6       29.82F HX 104
LA PAZ         PTSUNNY   90  70  51 SE7       29.87F HX  95
MEXICALI       SUNNY    104  52  17 SE14      29.78F HX 101
S.J. DEL CABO  PTSUNNY   84  70  61 E12       29.90F
TIJUANA        SUNNY     73  59  60 W14       29.97F

NORTHWESTERN MEXICO

CITY           SKY/WX    TMP DP  RH WIND       PRES   REMARKS
CULIACAN       PTSUNNY   91  75  59 W12       29.88S HX 102
DURANGO        CLOUDY    66  57  72 SW10      30.22F
GUAYMAS        MOSUNNY   91  81  70 SW12      29.81S HX 110
HERMOSILLO     MOSUNNY   88  70  55 SW16      29.89S HX  92
CD. JUAREZ     MOSUNNY   91  50  24 SW12      29.99F
LOS MOCHIS     MOSUNNY   86  72  62 S14       29.87F HX  92
OBREGON        MOSUNNY   90  72  55 SW9       29.84S HX  96

NORTHEASTERN MEXICO

CITY           SKY/WX    TMP DP  RH WIND       PRES   REMARKS
CHIHUAHUA      PTSUNNY   79  54  41 E8        30.13F
MATAMOROS      MOSUNNY   90  72  55 SE17      29.99S HX  96
MONCLOVA       MOSUNNY   91  66  43 NE12      29.93F HX  94
MONTERREY      SUNNY     95  52  23 SE18      29.93F HX  92
NUEVO LAREDO   SUNNY     97  61  30 S9        29.92F HX  97
PIEDRAS NEGRAS SUNNY     97  72  44 SE14      29.95F HX 105
REYNOSA        SUNNY     90  61  37 SE12G23   29.96R
SALTILLO       MOSUNNY   81  59  47 N17       30.18F
TORREON        PTSUNNY   91  57  31 CALM      30.03F HX  90
CD. VICTORIA   SUNNY     90  63  40 SW14      29.98S HX  90

WESTERN MEXICO

CITY           SKY/WX    TMP DP  RH WIND       PRES   REMARKS
AGUASCALIENTES PTSUNNY   61  57  88 SW7       30.30R
COLIMA         CLOUDY    79  73  83 SW12      30.02R
DEL BAJIO      CLOUDY    66  63  88 CALM      30.31S
GUADALAJARA    RAIN      63  61  94 CALM      30.23S
MANZANILLO       N/A    N/A N/A N/A MISG        N/A
MAZATLAN       PTSUNNY   88  77  70 NW7       29.90R HX 100
P. VALLARTA    PTSUNNY   86  73  66 E3        29.90R HX  93
URUAPAN        PTSUNNY   70  61  73 CALM      30.19S
ZACATECAS      MOSUNNY   70  50  49 NE7       30.28S

CENTRAL MEXICO

CITY           SKY/WX    TMP DP  RH WIND       PRES   REMARKS
CUERNAVACA     PTSUNNY   75  61  60 CALM      30.13R
MEXICO CITY    TSTM      61  52  72 SE8       30.36R
MORELIA        PTSUNNY   68  59  73 N5        30.24F
POZA RICA      SUNNY     86  73  66 NE7       30.04R HX  93
PUEBLA         CLOUDY    57  54  88 N6        30.38R
QUERETARO      PTSUNNY   70  55  60 NE9       30.29F
S. LUIS POTOSI PTSUNNY   70  50  49 E18       30.25S
TAMPICO        PTSUNNY   82  73  74 E5        30.01R
TOLUCA         TSTM      55  52  88 W5        30.41R

SOUTHERN MEXICO

CITY           SKY/WX    TMP DP  RH WIND       PRES   REMARKS
ACAPULCO       PTSUNNY   86  75  70 W12       29.82S HX  95
B. DE HUATULCO PTCLDY    88  70  55 W12       29.92S HX  92
OAXACA         CLOUDY    73  43  33 N9        30.24R
P. ESCONDIDO   PTSUNNY   86  75  70 CALM      29.96R HX  95
VERACRUZ       MOCLDY    84  73  70 E5        30.00R HX  91
ZIHUATANEJO    PTSUNNY   91  70  49 SW6       29.85F HX  97

YUCATAN PENINSULA

CITY           SKY/WX    TMP DP  RH WIND       PRES   REMARKS
CAMPECHE       MOCLDY    81  75  83 N12       29.93F
CANCUN         PTCLDY    84  79  84 NE5       29.98R HX  96
CHETUMAL       MOCLDY    79  75  89 CALM      29.95F
CD. DEL CARMEN MOCLDY    86  75  70 N10       29.96R HX  95
COZUMEL        MOCLDY    81  77  89 NE6       29.97R
MERIDA         MOCLDY    86  77  74 NE14      29.97R HX  97
MINATITLAN     MOCLDY    84  68  58 N12       29.92S
TAPACHULA      PTCLDY    86  79  79 SW12      29.81R HX  99
TUX. GUTIERREZ PTCLDY    82  66  57 S13       29.95R
VILLAHERMOSA   MOCLDY    84  75  74 N8        29.96S HX  92

CENTRAL AMERICA

CITY           SKY/WX    TMP DP  RH WIND       PRES   REMARKS
BELIZE CITY    PTCLDY    86  81  84 E5        29.96S HX 102
MANAGUA        PTCLDY    86  73  66 SE12      29.80R HX  93

CARIBBEAN

CITY           SKY/WX    TMP DP  RH WIND       PRES   REMARKS
ARUBA          PTCLDY    84  79  84 E16       29.80R HX  96
CURACAO        PTCLDY    84  77  79 E13       29.83R HX  94
KINGSTON       PTCLDY    86  75  70 S3        29.86S HX  95
NASSAU         PTCLDY    86  79  79 NE9       30.00R HX  99
SAN JUAN       MOCLDY    82  73  74 SE9       29.89R
SANTO DOMINGO  CLOUDY    79  77  94 NW7       29.80S
ST. CROIX      PTCLDY    82  75  78 SE8       29.93R
ST. KITTS      PTCLDY    82  77  83 E7        29.94R HX  91
ST. MAARTEN    PTCLDY    84  77  79 SE13      29.92S HX  94

$$




USA.gov is the U.S. government's official web portal to all federal, state and local government web resources and services.